Location: Bergnershof
(48.9468°N, 10.9431°E)
Time: 16:39:15
(UTC+00:00)

Cosmos 2333 Rocket - Pass Details

Date: 30 June 2021
Orbit: 841 x 861 km, 70.8° (Epoch: 28 July)

Event Time Altitude Azimuth Distance (km) Brightness Sun altitude
Rises 21:46:20 0° 282° (WNW) 3,426 5.9 -15.0°
Reaches altitude 10° 21:50:45 10° 314° (NW) 2,488 5.7 -15.2°
Maximum altitude 21:52:43 12° 335° (NNW) 2,364 5.9 -15.3°
Drops below altitude 10° 21:54:42 10° 355° (N) 2,485 5.9 -15.5°
Sets 21:59:07 0° 27° (NNE) 3,419 6.0 -15.7°
